Regional Weather Roundup
Issued by NWS

Home | Current Version | Previous Version | Graphics & Text | Print | Product List | Glossary On
Versions: 1 2 3 4 5 6 7 8 9 10 11 12 13 14 15 16 17 18 19 20 21 22 23 24 25 26 27 28 29 30 31 32 33 34 35 36 37 38 39 40 41 42 43 44 45 46 47 48 49 50
000
ASUS43 KTOP 020208
RWRKS

WEATHER ROUNDUP FOR KANSAS
NATIONAL WEATHER SERVICE GOODLAND KS
900 PM CDT WED JUL 01 2015

NOTE:  "FAIR" INDICATES FEW OR NO CLOUDS BELOW 12,000 FEET WITH NO
SIGNIFICANT WEATHER AND/OR OBSTRUCTIONS TO VISIBILITY.

KSZ001>006-013>018-027>032-041>047-020300-
NORTHWEST KANSAS

CITY           SKY/WX    TMP DP  RH WIND       PRES   REMARKS
GOODLAND       HVY RAIN  73  62  68 SW13G26   30.02R
HAYS           PTCLDY    88  57  35 NE9       29.87S
HILL CITY      MOCLDY    86  56  35 NE8       29.90R
RUSSELL        CLEAR     85  64  49 NE7       29.85R
$$

KSZ061>065-074>080-084>089-020300-
SOUTHWEST KANSAS

CITY           SKY/WX    TMP DP  RH WIND       PRES   REMARKS
DODGE CITY     CLEAR     85  56  37 NE8       29.90R
ELKHART          N/A     88  53  30 E8          N/A
GARDEN CITY    CLEAR     87  53  31 NE10      29.91R
GREAT BEND     CLEAR     86  63  45 NE6       29.85R
LIBERAL        CLEAR     91  55  29 E9        29.92R
PRATT          CLEAR     79  61  53 N8        29.86R
$$

KSZ066>073-081>083-090>101-020300-
SOUTHEAST KANSAS

CITY           SKY/WX    TMP DP  RH WIND       PRES   REMARKS
CHANUTE        PTCLDY    84  72  67 S14       29.77F
COFFEYVILLE    PTCLDY    86  73  65 S13       29.77S
HUTCHINSON     CLEAR     82  66  58 N7        29.80R
MEDICINE LODGE   N/A     89  61  38 N3        29.80R
NEWTON         CLEAR     82  64  54 N6        29.81S
PARSONS        PTCLDY    86  73  65 S10       29.79S
WICHITA INTL   PTCLDY    89  65  44 S8        29.77R
WICHITA JABRA  CLOUDY    90  68  48 W6        29.77R
WICHITA MCCONL PTCLDY    90  66  45 S16G23    29.78R
WINFIELD       PTCLDY    82  69  64 S17G25    29.79R
$$

KSZ007>012-019>026-033>040-048>060-102>105-020300-
NORTHEAST KANSAS

CITY           SKY/WX    TMP DP  RH WIND       PRES   REMARKS
CONCORDIA      PTCLDY    82  70  66 NE7       29.84R
EMPORIA        CLEAR     84  73  69 SE5       29.76F
LAWRENCE       CLEAR     81  74  79 NE12      29.78R
MANHATTAN      PTCLDY    85  72  65 NE8       29.79R
MARYSVILLE     CLEAR     79  72  78 E5        29.84R
OLATHE IND     MOCLDY    83  75  77 S7        29.79S
OLATHE EXE     MOCLDY    84  75  74 NW3       29.78S
SALINA         CLEAR     90  66  45 N9        29.80R
TOPEKA BILLARD CLEAR     82  76  81 NE7       29.78S
TOPEKA FORBES  CLEAR     84  75  74 NE10      29.78S
$$



USA.gov is the U.S. government's official web portal to all federal, state and local government web resources and services.